Location: Kalvesta
(38.0595°N, 100.2862°W)
Time: 01:50:17
(UTC+00:00)

Daily predictions for brighter satellites

Satellite Brightness Start Highest point End
(mag) Time Altitude Azimuth Time Altitude Azimuth Time Altitude Azimuth
Meteor 1-10 Rocket 4.2 00:46:51 10° N 00:52:35 69° E 00:58:09 10° SSE
FALCON 9 DEB 4.4 00:52:43 10° WSW 00:55:39 33° NW 00:58:36 10° NNE
SKYMED 2 3.8 00:53:16 10° N 00:57:38 77° WNW 01:01:57 10° SSW
CZ-2C R/B 3.4 00:54:26 10° SSE 01:00:16 85° ENE 01:05:58 10° N
Cosmos 2278 3.7 00:56:33 10° SSW 01:02:12 79° ESE 01:07:55 10° NNE
Cosmos 1743 Rocket 4.0 00:58:02 10° SSW 01:02:20 68° W 01:06:44 10° N
Cosmos 1805 Rocket 3.6 00:58:53 10° S 01:03:08 60° E 01:07:28 10° NNE
Cosmos 1461 4.1 01:00:22 10° S 01:04:20 28° ESE 01:08:22 10° NE
Cosmos 2297 Rocket 4.0 01:02:21 10° NW 01:07:31 37° WSW 01:12:38 10° S
H-2A R/B 4.3 01:04:09 10° NNW 01:07:34 26° WNW 01:10:59 10° SW
CZ-2C R/B 3.4 01:03:15 10° NNE 01:08:08 32° E 01:12:54 10° SSE
Cosmos 1818 3.7 01:04:05 10° NNW 01:09:35 83° WSW 01:15:01 10° SSE
CZ-4 R/B 4.5 01:06:34 10° SSE 01:10:44 90° W 01:14:54 10° NNW
Meteor 1-27 Rocket 3.7 01:05:48 10° N 01:11:16 60° E 01:16:42 10° SSE
Cosmos 1302 Rocket 4.3 01:10:06 10° S 01:14:57 42° ESE 01:19:49 10° NNE
CSL-04 Rocket 4.3 01:10:24 10° SE 01:15:23 35° ENE 01:20:22 10° N
SL-4 R/B 4.1 01:13:07 10° WNW 01:15:26 16° NNW 01:17:42 10° NNE
ERBS 3.0 01:13:06 10° SSW 01:16:09 34° SE 01:18:42 13° ENE
Cosmos 1689 Rocket 2.0 01:14:13 10° NNE 01:17:02 53° E 01:19:50 10° S
Aureole 1 Rocket 4.2 01:11:36 10° NNW 01:18:40 75° WSW 01:24:01 10° S
Cosmos 2360 Rocket 3.9 01:17:55 10° ESE 01:19:15 12° ESE 01:19:15 12° ESE
Cosmos 2228 Rocket 3.3 01:18:29 10° N 01:23:00 78° W 01:27:27 10° S
ERS-2 2.0 01:19:35 10° NNE 01:23:13 72° ESE 01:26:51 10° S
Helios 1A Rocket 3.4 01:19:28 10° SE 01:23:15 38° ENE 01:27:01 10° N
Lacrosse 5 rocket 1.3 01:20:13 10° NW 01:24:37 79° NE 01:28:45 10° SE
Cosmos 1666 Rocket 3.8 01:21:08 10° SSE 01:25:17 46° E 01:29:26 10° NNE
Cosmos 2154 Rocket 4.5 01:21:36 10° SSE 01:27:12 37° E 01:32:49 10° NNE
SAR-Lupe-4 3.4 01:23:54 10° NNE 01:27:29 73° ESE 01:31:02 10° S
Gbstr 26 Del rocket 4.1 01:26:03 10° WSW 01:30:07 45° NNW 01:35:04 10° NE
COSMOS 2455 2.8 01:24:19 10° NNW 01:30:19 64° ENE 01:36:16 10° SE
Cosmos 1867 4.3 01:26:23 10° SW 01:31:42 56° NW 01:37:04 10° NNE
TSX-5 3.9 01:28:06 10° NNW 01:32:08 47° ENE 01:34:45 15° SE
SL-08 RB Rocket 4.0 01:29:35 10° SE 01:33:46 41° ENE 01:38:01 10° N
Cosmos 2074 Rocket 4.0 01:28:10 10° S 01:34:23 68° E 01:40:36 10° NNE
Cosmos 1980 Rocket 3.1 01:29:29 10° SW 01:34:58 51° WNW 01:40:31 10° NNE
HJ-1C 3.2 01:36:11 10° SSE 01:39:28 68° ENE 01:42:47 10° N
YAOGAN 1 2.7 01:35:56 10° S 01:40:15 76° W 01:44:35 10° NNW
SeaSat 1 3.2 01:38:15 10° NNE 01:43:04 54° WNW 01:47:51 10° SW
Cosmos 2322 Rocket 2.6 01:40:06 10° S 01:45:16 40° ESE 01:50:27 10° NE
Ariane Rocket 4.2 01:46:45 22° ENE 01:46:46 22° ENE 01:50:35 10° NNE
Cosmos 1932 4.5 01:40:22 10° SSW 01:46:48 68° ESE 01:53:12 10° NE
Sich 1 3.9 01:43:55 10° SSW 01:48:10 53° W 01:52:29 10° N
Cosmos 2184 Rocket 3.9 01:42:21 10° S 01:48:30 85° E 01:54:42 10° N
Okean-O 3.1 01:45:09 10° S 01:49:31 63° W 01:53:55 10° NNW
Cosmos 2227 4.3 01:46:58 10° NNW 01:52:39 58° ENE 01:57:16 16° SE
Cosmos 1437 2.7 01:52:37 10° NNW 01:55:30 68° W 01:58:21 10° S
USA 234 3.9 01:55:14 10° NE 02:01:33 53° NW 02:07:51 10° WSW
Cosmos 1515 4.0 01:58:30 10° N 02:01:47 44° ENE 02:01:47 44° ENE
Meteor 1-20 Rocket 4.3 01:58:30 10° SSW 02:03:57 75° W 02:09:25 10° N
CZ-4 R/B 3.4 02:00:49 10° SSW 02:04:10 29° W 02:07:32 10° NW
DMSP B5D2-2 3.9 01:59:25 10° NNE 02:04:39 69° ESE 02:09:50 10° S
SL-16 R/B 2.1 01:59:55 10° SSW 02:05:33 79° ESE 02:11:15 10° NNE
Cosmos 1633 Rocket 3.3 02:02:10 10° SSW 02:06:32 71° W 02:10:58 10° N
Cosmos 1707 Rocket 4.0 02:03:01 10° NNW 02:07:22 63° W 02:11:40 10° S
Cosmos 2237 4.4 02:08:10 10° S 02:13:35 46° ESE 02:14:44 40° ENE
Cosmos 2341 Rocket 4.2 02:07:52 10° SSE 02:13:51 45° E 02:19:48 10° NNE
H-2A R/B 3.7 02:10:16 10° SSW 02:15:11 36° W 02:20:11 10° NNW
Cosmos 1271 Rocket 3.5 02:12:42 10° NNW 02:16:21 51° W 02:19:57 10° S
SJ-6B 4.0 02:20:41 32° NNE 02:20:41 32° NNE 02:23:07 10° N
Cosmos 1602 4.4 02:15:27 10° SSW 02:19:13 54° W 02:23:03 10° N
Meteor 1-19 Rocket 4.2 02:16:50 10° N 02:22:50 80° E 02:27:45 15° SSE
Cosmos 2263 Rocket 2.3 02:18:40 10° NNW 02:24:13 73° WSW 02:28:14 19° S
MOS 1 4.3 02:28:20 54° E 02:28:33 54° ENE 02:34:05 10° N
Okean 1 3.6 02:29:36 10° NNW 02:33:27 67° WNW 02:33:27 67° WNW
Cosmos 1486 Rocket 3.8 02:32:28 10° NNW 02:37:46 78° ENE 02:37:46 78° ENE
IRS-1A Rocket 4.1 02:38:44 69° E 02:39:00 70° ENE 02:44:37 10° N
Cosmos 1470 Rocket 4.3 02:35:35 10° SSW 02:39:57 53° W 02:44:21 10° N
MetOp-A 4.2 02:37:48 31° S 02:40:28 77° WSW 02:45:51 10° NNW
Meteor 1-14 Rocket 4.3 02:36:58 10° SSW 02:42:35 74° W 02:48:09 10° N
Cosmos 1992 Rocket 4.1 02:37:49 10° SSW 02:43:02 72° WNW 02:46:32 21° N
CZ-2C R/B 4.4 02:43:32 10° N 02:48:18 31° WNW 02:53:00 10° SW
Meteor 2-4 Rocket 3.7 02:45:10 10° N 02:50:28 73° NNE 02:50:28 73° NNE
Cosmos 968 Rocket 4.0 02:55:12 10° NNW 03:00:20 56° WSW 03:00:34 56° WSW
GP-B 4.5 02:59:08 28° SW 03:00:43 37° W 03:04:51 10° NNW
Cosmos 1844 Rocket 4.1 02:56:30 10° N 02:59:07 26° N 02:59:07 26° N
Lacrosse 5 rocket 4.3 03:02:10 10° WSW 03:03:04 11° WSW 03:03:58 10° SW
Cosmos 2360 Rocket 2.9 02:57:27 10° SSW 03:01:12 44° SSW 03:01:12 44° SSW
Cosmos 2322 Rocket 4.0 03:24:41 10° WSW 03:29:23 27° WNW 03:33:46 11° N
Cosmos 2082 Rocket 3.7 10:23:36 30° NNE 10:23:36 30° NNE 10:26:25 10° NNE
ALOS 4.3 10:17:20 10° NE 10:20:26 26° ENE 10:20:26 26° ENE
Cosmos 1980 Rocket 2.9 10:31:26 49° ESE 10:31:26 49° ESE 10:35:59 10° SE
ATLAS CENTAUR R/B 4.3 10:32:31 10° NNE 10:33:56 12° NE 10:35:29 10° ENE
Meteor 2-15 4.5 10:41:26 75° ESE 10:41:35 75° E 10:47:44 10° N
ISS -0.5 10:49:35 11° NE 10:49:35 11° NE 10:49:41 10° NE
SL-16 R/B 4.1 10:56:24 10° N 11:01:16 28° ENE 11:06:05 10° ESE
Orbus 7S? 4.4 11:01:21 67° NW 11:01:33 68° NW 11:12:07 10° NE
Cosmos 1484 Rocket 4.5 11:06:32 10° NNE 11:08:10 25° NNE 11:08:10 25° NNE
Cosmos 1331 Rocket 4.2 11:09:42 10° NNW 11:14:53 69° ENE 11:19:59 10° SSE
SeaSat 1 2.5 11:10:03 10° SSE 11:14:57 76° ENE 11:19:03 15° NNW
SL-08 R/B 4.4 11:10:31 10° N 11:16:45 88° E 11:22:51 10° S
BREEZE-M DEB (TANK) 4.2 11:19:44 23° NE 11:19:44 23° NE 11:22:02 10° E
CBERS 1 LM4 rocket 4.2 11:14:42 10° NNE 11:19:36 86° W 11:21:01 46° SSW
ASTRO E2 4.5 11:23:10 21° SSE 11:23:20 21° SSE 11:26:24 10° ESE
Meteor 2-15 Rocket 4.4 11:25:54 31° SW 11:28:46 57° W 11:34:51 10° N
Milstar 3 Cent rocket 3.9 11:34:23 13° SSW 11:36:39 18° SSE 11:40:07 10° ESE
Cosmos 1408 Rocket 3.4 11:34:51 10° N 11:39:19 81° W 11:43:42 10° S
Iridium 4 Rocket 4.2 11:40:46 31° NW 11:40:46 31° NW 11:44:07 10° NNW
Cosmos 220 Rocket 4.1 11:40:27 41° WNW 11:41:31 53° WSW 11:45:48 10° S
Cosmos 2278 4.1 11:41:09 34° WNW 11:42:23 39° WSW 11:47:37 10° S
Cosmos 1302 Rocket 4.4 11:39:04 10° NNW 11:44:17 63° ENE 11:49:30 10° SSE
Cosmos 2315 Rocket 4.5 11:39:40 10° S 11:45:47 63° E 11:51:55 10° NNE
NOSS 2-2 (C) 3.3 11:48:07 45° NW 11:48:09 45° NW 11:51:38 10° NNE
Cosmos 2221 2.5 11:45:43 13° SSW 11:49:34 57° W 11:53:53 10° N
X-37B 2.2 11:49:14 23° NNW 11:50:02 26° N 11:52:46 10° ENE
SJ-12 3.8 11:46:08 10° NNE 11:50:13 87° WNW 11:54:16 10° SSW
SKYMED 2 3.9 11:46:12 10° SSE 11:50:30 66° ENE 11:54:48 10° N
Cosmos 1500 Rocket 3.8 11:47:41 10° N 11:52:01 70° E 11:56:20 10° SSE
Meteor 1-4 Rocket 2.4 11:48:40 10° SSW 11:52:23 79° W 11:56:07 10° N
Cosmos 1553 Rocket 4.4 11:47:25 13° SW 11:52:36 40° WNW 11:58:33 10° N
Cosmos 1842 Rocket 3.7 11:49:58 15° SSW 11:53:26 49° W 11:57:41 10° N
